Bloomington, IN

5:03 PM EST on February 27, 2017 (GMT -0500)
Monroe County

Weather History for KBMG - December, 1999

Change the Weather History Date:

Tuesday, December 21, 1999

  Actual Average Record
Temperature  
Mean Temperature 20 °F 31 °F  
Max Temperature 25 °F 39 °F 59 °F (2013)
Min Temperature 12 °F 22 °F 0 °F (2000)
Degree Days  
Heating Degree Days 46 34  
Month to date heating degree days 666  
Since 1 July heating degree days 1722  
Cooling Degree Days 0 0  
Month to date cooling degree days 0  
Year to date cooling degree days 927  
Moisture  
Dew Point 8 °F    
Average Humidity 65    
Maximum Humidity 80    
Minimum Humidity 45    
Precipitation  
Precipitation 0.00 in 0.13 in 4.82 in (2013)
Month to date precipitation 2.16  
Year to date precipitation 46.17  
Sea Level Pressure  
Sea Level Pressure 30.34 in    
Wind  
Wind Speed 4 mph (NNW)    
Max Wind Speed 7 mph    
Max Gust Speed -    
Visibility 10 miles    
Events      
T = Trace of Precipitation, MM = Missing Value Source: NWS Daily Summary

Daily Weather History Graph

Daily Weather History Graph

Search for Another Location

Airport or City:

Trip Planner

Search our weather history database for the weather conditions in past years. The results will help you decide how hot, cold, wet, or windy it might be!

Date:

Astronomy

Dec. 21, 1999 Rise Set
Actual Time 8:02 AM EST 5:26 PM EST
Civil Twilight 7:31 AM EST 5:57 PM EST
Nautical Twilight 6:58 AM EST 6:30 PM EST
Astronomical Twilight 6:25 AM EST 7:03 PM EST
Moon 4:50 PM EST (12/21) 6:29 AM EST (12/21)
Length of Visible Light 10h 25m
Length of Day
9h 24m
Waxing Gibbous, 98% of the Moon is Illuminated
Dec 21
Waxing Gibbous
Dec 22
Full
Dec 29
Last Quarter
Jan 6
New
Jan 14
First Quarter

Hourly Weather History & Observations

Time (EST) Temp. Windchill Dew Point Humidity Pressure Visibility Wind Dir Wind Speed Gust Speed Precip Events Conditions
12:53 AM 19.9 °F 12.1 °F 8.1 °F 60% 30.32 in 10.0 mi WNW 5.8 mph - N/A   Partly Cloudy
1:53 AM 19.0 °F 11.1 °F 8.1 °F 62% 30.32 in 10.0 mi NW 5.8 mph - N/A   Clear
2:53 AM 18.0 °F 12.7 °F 8.1 °F 65% 30.32 in 10.0 mi NW 3.5 mph - N/A   Clear
3:53 AM 17.1 °F 10.0 °F 9.0 °F 71% 30.32 in 10.0 mi Variable 4.6 mph - N/A   Clear
4:53 AM 17.1 °F 7.6 °F 9.0 °F 71% 30.32 in 10.0 mi Variable 6.9 mph - N/A   Clear
5:53 AM 17.1 °F 7.6 °F 9.0 °F 71% 30.30 in 10.0 mi NW 6.9 mph - N/A   Clear
6:53 AM 17.1 °F 10.0 °F 8.1 °F 68% 30.33 in 10.0 mi NNW 4.6 mph - N/A   Partly Cloudy
7:53 AM 16.0 °F - 9.0 °F 74% 30.35 in 10.0 mi Calm Calm - N/A   Partly Cloudy
8:53 AM 16.0 °F 10.4 °F 8.1 °F 71% 30.36 in 10.0 mi NNW 3.5 mph - N/A   Clear
9:53 AM 19.0 °F 11.1 °F 8.1 °F 62% 30.36 in 10.0 mi NNE 5.8 mph - N/A   Clear
10:53 AM 19.9 °F 13.4 °F 9.0 °F 62% 30.35 in 10.0 mi Variable 4.6 mph - N/A   Partly Cloudy
11:53 AM 21.0 °F - 7.0 °F 55% 30.35 in 10.0 mi Calm Calm - N/A   Clear
12:53 PM 23.0 °F 15.8 °F 6.1 °F 48% 30.32 in 10.0 mi Variable 5.8 mph - N/A   Clear
2:53 PM 25.0 °F 19.3 °F 6.1 °F 45% 30.30 in 10.0 mi NNW 4.6 mph - N/A   Clear
3:53 PM 24.1 °F 18.2 °F 6.1 °F 46% 30.30 in 10.0 mi North 4.6 mph - N/A   Clear
5:53 PM 18.0 °F 9.8 °F 9.0 °F 68% 30.31 in 10.0 mi North 5.8 mph - N/A   Clear
6:53 PM 18.0 °F 12.7 °F 8.1 °F 65% 30.34 in 10.0 mi North 3.5 mph - N/A   Clear
7:53 PM 17.1 °F - 7.0 °F 65% 30.36 in 10.0 mi Calm Calm - N/A   Clear
8:53 PM 17.1 °F - 10.0 °F 74% 30.38 in 10.0 mi Calm Calm - N/A   Clear
9:53 PM 14.0 °F - 9.0 °F 80% 30.39 in 10.0 mi Calm Calm - N/A   Clear
10:53 PM 15.1 °F - 7.0 °F 70% 30.39 in 10.0 mi Calm Calm - N/A   Partly Cloudy
11:53 PM 12.9 °F - 7.0 °F 77% 30.39 in 10.0 mi Calm Calm - N/A   Partly Cloudy